Terminal Aerodrome Forecast
Issued by NWS La Crosse, WI

Home | Current Version | Previous Version | Text Only | Print | Product List | Glossary On
Versions: 1 2 3 4 5 6 7 8 9 10 11 12 13 14 15 16 17 18 19 20 21 22 23 24 25 26 27 28 29 30 31 32 33 34 35 36 37 38 39 40 41 42 43 44 45 46 47 48 49 50
000
FTUS43 KARX 231136
TAFRST
TAF
KRST 231136Z 2312/2412 06006KT 1/4SM FG VV002
     FM231400 07005KT 1SM BR OVC004
     FM231500 09006KT 3SM BR OVC008
     FM231600 10006KT P6SM VCSH BKN015
     FM231800 11008KT P6SM BKN025
     FM240000 15012KT P6SM BKN120=

USA.gov is the U.S. government's official web portal to all federal, state and local government web resources and services.